{"data":{"norad_id":65791,"epoch":"2026-05-25T02:31:19.285248Z","epoch_age_seconds":66120,"freshness":"FRESH","line1":"1 65791U 25218A   26145.10508432  .00002996  00000+0  21158-3 0  9992","line2":"2 65791  97.4536   7.8278 0001150  71.7180 288.4173 15.05659189 36468","mean_motion":15.05659189,"eccentricity":0.000115,"inclination_deg":97.4536,"raan_deg":7.8278,"arg_perigee_deg":71.718,"mean_anomaly_deg":288.4173,"bstar":0.00021158,"rev_number":3646,"period_min":95.639173228597,"perigee_km":548.68629153967,"apogee_km":550.27964413227,"semimajor_km":6927.619967836,"source":"CELESTRAK","updated_at":"2026-05-25T13:38:20.935584Z"}}